Flag for Canada Weather past 2 weeks in Sanikiluaq, Nunavut, Canada

Now
37 °F

Clear.


Feels Like: 35 °F
Forecast: 31 / 41 °F
Wind: 3 mph from Southeast

Location: Kuujjuarapik

Current Time: Jul 3, 2015 at 3:17:23 AM

Latest Report: Jul 3, 2015 at 2:00 AM


Visibility: 9 mi

Pressure: 29.78 "Hg

Humidity: 100%

Dew point: 37 °F

Location of SanikiluaqLocation

Historic Weather in Sanikiluaq — Graph

°F

Sanikiluaq temperature yesterday

Maximum temperature yesterday: 45 °F (at 1:00 PM)
Minimum temperature yesterday: 34 °F (at 3:59 AM)
Average temperature yesterday: 40 °F

Past Weeks' High & Low Weather Summary

 TemperatureHumidityPressure
High66 °F (Jun 28, 1:00 PM)100% (Jun 18, 2:00 AM)30.05 "Hg (Jun 18, 2:00 AM)
Low30 °F (Jun 30, 2:03 AM)41% (Jun 28, 12:00 AM)29.53 "Hg (Jun 20, 5:00 AM)
Average42 °F84%29.85 "Hg
* Reported Jun 18 2:00 AM — Jul 3 2:00 AM, Sanikiluaq, Weather by CustomWeather, © 2015

Note: Actual official high and low records may vary slightly from our data, if they occured in-between our weather recording intervals... More about our weather records

Advertising

Sanikiluaq weather history for previous 24 hours

 ConditionsComfort  
Time TempWeatherWind HumidityBarometerVisibility
2:00 AM
Fri, Jul 3
37 °FClear.3 mph100%29.78 "Hg9 mi
1:00 AM36 °FClear.No wind100%29.80 "Hg9 mi
12:00 AM37 °FClear.No wind93%29.81 "Hg9 mi
11:00 PM
Thu, Jul 2
39 °FClear.3 mph93%29.83 "Hg9 mi
10:00 PM39 °FSunny.3 mph93%29.83 "Hg9 mi
9:00 PM41 °FSunny.5 mph93%29.83 "Hg9 mi
8:00 PM41 °FSunny.3 mph87%29.84 "Hg9 mi
7:00 PM43 °FSunny.7 mph87%29.84 "Hg9 mi
6:00 PM43 °FSunny.6 mph81%29.85 "Hg9 mi
5:00 PM43 °FSunny.7 mph81%29.86 "Hg9 mi
4:00 PM43 °FSunny.8 mph81%29.87 "Hg9 mi
3:00 PM45 °FSunny.8 mph81%29.88 "Hg9 mi
2:00 PM43 °FSunny.13 mph81%29.89 "Hg9 mi
1:00 PM45 °FSunny.8 mph76%29.88 "Hg9 mi
12:00 PM43 °FSunny.8 mph76%29.89 "Hg9 mi
11:00 AM41 °FSunny.10 mph81%29.89 "Hg9 mi
10:00 AM43 °FSunny.7 mph81%29.90 "Hg9 mi
9:00 AM41 °FSunny.8 mph87%29.90 "Hg9 mi
8:00 AM43 °FSunny.6 mph81%29.90 "Hg9 mi
7:00 AM41 °FSunny.5 mph87%29.90 "Hg9 mi
6:00 AM37 °FSunny.No wind100%29.90 "Hg9 mi
5:47 AM36 °FSunny.No wind100%29.90 "Hg8 mi
5:00 AM34 °FClear.2 mph100%29.90 "Hg9 mi
4:00 AM34 °FFog.2 mph100%29.91 "Hg5 mi
3:59 AM34 °FFog.2 mph100%29.91 "Hg5 mi
3:00 AM36 °FFog.No wind100%29.92 "Hg5 mi
Weather by CustomWeather, © 2015

See weather overviewHow to use our weather pages